This is the latest recevied weather packets stored in our database for station/object KB0Y. If no packets are shown the sender has not sent any weather packets the latest 10 day(s).
| Time | Temp. | Humidity | Pressure | Rain* | Wind** | Luminosity | Snow |
|---|---|---|---|---|---|---|---|
| 1777655324 | 23.33° C | 69% | 1016.9 hPa | 0 mm | - | 211 W/m² | - |
| 1777655021 | 23.33° C | 69% | 1016.6 hPa | 0 mm | - | 157 W/m² | - |
| 1777654719 | 23.33° C | 70% | 1016.9 hPa | 0 mm | - | 257 W/m² | - |
| 1777654416 | 23.33° C | 70% | 1016.9 hPa | 0 mm | - | 165 W/m² | - |
| 1777654114 | 23.33° C | 70% | 1017.2 hPa | 0 mm | - | 125 W/m² | - |
| 1777653812 | 23.33° C | 69% | 1016.9 hPa | 0 mm | - | 194 W/m² | - |
| 1777653507 | 23.33° C | 69% | 1016.6 hPa | 0 mm | - | 263 W/m² | - |
| 1777653204 | 23.33° C | 70% | 1016.6 hPa | 0 mm | - | 246 W/m² | - |
| 1777652901 | 23.33° C | 71% | 1016.6 hPa | 0 mm | - | 194 W/m² | - |
| 1777652597 | 23.33° C | 70% | 1016.9 hPa | 0 mm | - | 188 W/m² | - |
| 1777652295 | 22.78° C | 70% | 1016.9 hPa | 0 mm | - | 221 W/m² | - |
| 1777651991 | 22.78° C | 69% | 1017.2 hPa | 0 mm | - | 227 W/m² | - |
| 1777651688 | 22.78° C | 72% | 1016.9 hPa | 0 mm | - | 266 W/m² | - |
| 1777651384 | 22.78° C | 70% | 1017.2 hPa | 0 mm | - | 216 W/m² | - |
| 1777651082 | 22.78° C | 71% | 1017.2 hPa | 0 mm | - | 236 W/m² | - |
| 1777650778 | 22.22° C | 72% | 1017.6 hPa | 0 mm | - | 311 W/m² | - |
| 1777650475 | 22.78° C | 72% | 1017.6 hPa | 0 mm | - | 143 W/m² | - |
| 1777650172 | 22.78° C | 72% | 1017.6 hPa | 0 mm | - | 116 W/m² | - |
| 1777649870 | 22.78° C | 72% | 1017.6 hPa | 0 mm | - | 127 W/m² | - |
| 1777649568 | 22.22° C | 72% | 1017.6 hPa | 0 mm | - | 100 W/m² | - |
| 1777649263 | 22.22° C | 73% | 1017.2 hPa | 0 mm | - | 121 W/m² | - |
| 1777648961 | 22.22° C | 70% | 1017.2 hPa | 0 mm | - | 143 W/m² | - |
| 1777648658 | 21.67° C | 71% | 1017.2 hPa | 0 mm | - | 230 W/m² | - |
| 1777648354 | 21.67° C | 72% | 1017.2 hPa | 0 mm | - | 208 W/m² | - |
| 1777648050 | 21.67° C | 73% | 1017.2 hPa | 0 mm | - | 163 W/m² | - |
* Rain latest hour (hover to see other rain measurements)
** Current wind speed in m/s (hover to see current wind gust speed)